This is the latest recevied weather packets stored in our database for station/object I8ZSE-10. If no packets are shown the sender has not sent any weather packets the latest 10 day(s).
| Time | Temp. | Humidity | Pressure | Rain* | Wind** | Luminosity | Snow |
|---|---|---|---|---|---|---|---|
| 1788253230 | 27.78° C | 49% | - | 0 mm | - | - | - |
| 1788252641 | 27.78° C | 48% | - | 0 mm | - | - | - |
| 1788252030 | 27.22° C | 50% | - | 0 mm | - | - | - |
| 1788251130 | 27.22° C | 50% | - | 0 mm | - | - | - |
| 1788250530 | 26.67° C | 51% | - | 0 mm | - | - | - |
| 1788249930 | 26.67° C | 53% | - | 0 mm | - | - | - |
| 1788249330 | 26.67° C | 54% | - | 0 mm | - | - | - |
| 1788248730 | 26.11° C | 55% | - | 0 mm | - | - | - |
| 1788248130 | 26.11° C | 59% | - | 0 mm | - | - | - |
| 1788247530 | 25.56° C | 60% | - | 0 mm | - | - | - |
| 1788246930 | 25.56° C | 62% | - | 0 mm | - | - | - |
| 1788246330 | 25.56° C | 64% | - | 0 mm | - | - | - |
| 1788245730 | 25.56° C | 65% | - | 0 mm | - | - | - |
| 1788245146 | 24.44° C | 69% | - | 0 mm | - | - | - |
| 1788244530 | 23.89° C | 73% | - | 0 mm | - | - | - |
| 1788243930 | 23.89° C | 72% | - | 0 mm | - | - | - |
| 1788243330 | 23.89° C | 71% | - | 0 mm | - | - | - |
| 1788242730 | 23.33° C | 74% | - | 0 mm | - | - | - |
| 1788242130 | 23.33° C | 74% | - | 0 mm | - | - | - |
| 1788241530 | 23.33° C | 73% | - | 0 mm | - | - | - |
| 1788240930 | 23.33° C | 73% | - | 0 mm | - | - | - |
| 1788240330 | 22.78° C | 73% | - | 0 mm | - | - | - |
| 1788239730 | 22.78° C | 73% | - | 0 mm | - | - | - |
| 1788239130 | 23.33° C | 72% | - | 0 mm | - | - | - |
| 1788238530 | 23.33° C | 72% | - | 0 mm | - | - | - |
* Rain latest hour (hover to see other rain measurements)
** Current wind speed in m/s (hover to see current wind gust speed)